Regional Weather Roundup
Issued by NWS

Home | Current Version | Previous Version | Text Only | Print | Product List | Glossary On
Versions: 1 2 3 4 5 6 7 8 9 10 11 12 13 14 15 16 17 18 19 20 21 22 23 24 25 26 27 28 29 30 31 32 33 34 35 36 37 38 39 40 41 42 43 44 45 46 47 48 49 50
000
ASUS44 KLUB 300510
RWRTX
WEST TEXAS WEATHER ROUNDUP
NATIONAL WEATHER SERVICE LUBBOCK TX
1200 AM CDT MON MAR 30 2015

NOTE: "FAIR" INDICATES FEW OR NO CLOUDS BELOW 12,000 FEET WITH NO
SIGNIFICANT WEATHER AND/OR OBSTRUCTIONS TO VISIBILITY.

TXZ004-006>008-010-012-014-016-OKZ002-300600-
TEXAS PANHANDLE/OKLAHOMA PANHANDLE

CITY           SKY/WX    TMP DP  RH WIND       PRES   REMARKS
AMARILLO       PTCLDY    54  25  32 E7        30.26R
BORGER         MOCLDY    55  25  31 W5        30.24R
CANADIAN       PTCLDY    45  33  61 SW5       30.21R
DALHART        CLOUDY    53  26  35 SE3       30.26S
DUMAS          CLOUDY    49  22  35 SE7       30.24F
GUYMON         MOCLDY    55  28  35 E6        30.22S
HEREFORD       PTCLDY    43  30  59 NW3       30.27R
PAMPA          PTCLDY    51  26  37 SE7       30.24S
PERRYTON       PTCLDY    44  27  52 CALM      30.23S
$$

TXZ026-029-035-045-048-300600-
SOUTHERN PANHANDLE/SOUTH PLAINS/ROLLING PLAINS

CITY           SKY/WX    TMP DP  RH WIND       PRES   REMARKS
CHILDRESS      CLEAR     59  25  27 NE7       30.19R
SEMINOLE       MOCLDY    56  32  40 CALM      30.20S
LUBBOCK        MOCLDY    52  25  35 NE14      30.20F
PLAINVIEW      PTCLDY    52  26  36 NE7       30.22S
SNYDER         PTCLDY    65  38  36 NE14      30.17R
$$

TXZ052-054-060>062-072-078-127-140-154-169-300600-
PERMIAN BASIN/CONCHO VALLEY/BIG COUNTRY/EDWARDS PLATEAU

CITY           SKY/WX    TMP DP  RH WIND       PRES   REMARKS
ABILENE        PTCLDY    63  46  54 N7        30.14S
BIG SPRING     MOCLDY    65  35  32 NE20      30.17S
BRADY          CLEAR     66  50  55 SW5       30.10R
BROWNWOOD      PTCLDY    64  52  63 CALM      30.10R
JUNCTION       PTCLDY    71  56  58 CALM      30.12R
MIDLAND        PTCLDY    65  39  38 E14       30.16R
ODESSA         MOCLDY    65  37  35 E14       30.17R
SAN ANGELO     CLEAR     61  47  59 CALM      30.13S
SONORA         MOCLDY    66  54  63 CALM      30.17F
SWEETWATER     PTCLDY    63  42  45 NE12      30.19S
WINK           CLEAR     68  36  30 E14       30.14R
$$

TXZ055-058-074-075-080-082-300600-
FAR WEST/SOUTHWEST MOUNTAINS/TRANS PECOS

CITY           SKY/WX    TMP DP  RH WIND       PRES   REMARKS
ALPINE         PTCLDY    58  33  37 N5        30.27R
DRYDEN           N/A     69  54  58 N14       30.07R
EL PASO        CLOUDY    73  20  13 S7        30.13R
FORT STOCKTON  CLEAR     68  42  38 E17G26    30.15R
GUADALUPE PASS CLOUDY    61  31  32 NE31      30.27R
MARFA          PTCLDY    52  30  43 N8        30.22S
PECOS          CLEAR     66  39  36 E9        30.15R
PRESIDIO       FAIR      69  25  18 N9        30.06S
$$

TXZ014-016-019-021>030-083-300600
TEXAS TECH WEST TEXAS MESONET/TEXAS PANHANDLE/NORTHERN SOUTH PLAINS

CITY           SKY/WX    TMP DP  RH WIND       PRES   REMARKS
ABERNATHY 5ENE   N/A     47  27  44 NE7       30.23S
AMARILLO 9NNE    N/A     45  27  50 SE5       30.24F
AMARILLO 7SSE    N/A     52  26  36 E3        30.26S
AMHERST 1NE      N/A     52  24  34 NE9       30.23S
BOOTLEG 11WNW    N/A     47  25  41 E8        30.28F
CANADIAN 6E      N/A     52  30  43 E3        30.21R
CAPROCK CYN SP   N/A     59  28  30 N1        30.22S
CHILDRESS 2NNE   N/A     56  25  30 N6        30.19R
CLARENDON 2WSW   N/A     47  26  43 NE6       30.21F
CLAUDE 12SW      N/A     51  25  37 E8        30.24R
DIMMITT 2NE      N/A     49  26  41 NE6       30.26S
FLOYDADA 2NNE    N/A     46  23  40 NE6       30.22S
FRIONA 2NE       N/A     43  27  53 NE6       30.26F
GOODLETT 3W      N/A     56  30  37 N5        30.17S
HART 3N          N/A     46  25  44 N8        30.25S
HEREFORD 2NW     N/A     50  23  35 CALM      30.26S
MCLEAN 1E        N/A     56  25  31 NE6       30.20S
MEMPHIS 1NE      N/A     55  22  27 N7        30.20R
MULESHOE 2SSW    N/A     45  29  54 E3        30.24S
OLTON 6S         N/A     48  26  43 NE10      30.23F
PALO DURO SP     N/A     57  25  29 NE3       30.26S
PAMPA 2E         N/A     50  26  40 E5        30.23S
PLAINVIEW 1S     N/A     55  24  30 NE7       30.23S
SILVERTON 7ESE   N/A     56  25  29 NE9       30.23S
TULIA 2ENE       N/A     46  26  46 NW2       30.25R
TURKEY 2WSW      N/A     57  24  27 NE3       30.20R
UMBARGER 3NNE    N/A     40  27  59 CALM      30.26S
$$

TXZ033>036-039>041-045>048-300600
TEXAS TECH WEST TEXAS MESONET/SOUTH PLAINS

CITY           SKY/WX    TMP DP  RH WIND       PRES   REMARKS
AIKEN 3WSW       N/A     45  22  40 N6        30.24R
ANDREWS 2NE      N/A     59  36  41 NE8       30.18S
ANTON 6SSW       N/A     54  23  30 NE12      30.21F
BROWNFIELD 2S    N/A     57  25  29 E8        30.20S
DENVR CTY 7WNW   N/A     57  25  28 NE9       30.20S
GAIL 2ESE        N/A     60  37  43 NE7       30.17S
LAMESA 2SE       N/A     61  37  39 E10       30.19S
LEVELLAND 4S     N/A     50  21  32 NE7       30.21S
LUBBOCK 3WNW     N/A     60  23  24 NE7       30.21S
MORTON 1ENE      N/A     49  23  36 NE9       30.22S
ODONNELL 1N      N/A     56  29  34 NE8       30.19F
PLAINS 3N        N/A     55  24  30 E9        30.21S
REESE CENTER     N/A     50  22  33 E8        30.22R
SEAGRAVES 1SW    N/A     61  27  27 NE7       30.20S
SEMINOLE 2NNE    N/A     57  30  35 NE7       30.19S
SLATON 2NE       N/A     56  26  31 NE5       30.21S
SNYDER 3E        N/A     63  38  38 NE14      30.16S
SUNDOWN 8SW      N/A     55  23  29 NE8       30.21S
TAHOKA 3NNE      N/A     53  28  37 E7        30.20S
WOLFFORTH 6SSW   N/A     53  25  33 NE7       30.21S
$$

TXZ031-032-036>038-042>044-300600-
TEXAS TECH WEST TEXAS MESONET/ROLLING PLAINS

CITY           SKY/WX    TMP DP  RH WIND       PRES   REMARKS
ASPERMONT 3NE    N/A     56  39  52 E3        30.16S
FLUVANNA 3WNW    N/A     61  34  36 NE9       30.18S
GRAHAM 5SSW      N/A     60  35  38 NE9       30.19F
GUTHRIE 10WSW    N/A     56  39  52 N6        30.17R
HASKELL 1NW      N/A     52  41  65 NE8       30.15R
JAYTON 1SSE      N/A     60  38  43 NE8       30.17R
KNOX CITY 3NW    N/A     56  40  54 N7        30.15S
LK A HENRY 1NW   N/A     59  37  44 NE6       30.17S
NORTHFIELD 1S    N/A     58  24  27 NE7       30.19S
ODELL 4ENE       N/A     49  41  75 N7        30.18R
PADUCAH 10SW     N/A     60  37  42 N5        30.18R
POST 1NE         N/A     57  34  41 N2        30.19S
RRING SPRGS 3N   N/A     58  24  26 N5        30.20S
SEYMOUR 3NW      N/A     54  42  64 NE6       30.15R
SPUR 1W          N/A     57  36  45 N7        30.17S
WEINERT 2NNE     N/A     57  41  54 E5        30.15S
WHITE RVR 6NE    N/A     56  33  41 N7        30.20R
$$

TXZ052-054-060>062-072-078-127-140-154-169-300600-
TEXAS TECH WEST TEXAS MESONET/PERMIAN BASIN/
CONCHO VALLEY/BIG COUNTRY/EDWARDS PLATEAU

CITY           SKY/WX    TMP DP  RH WIND       PRES   REMARKS
COYANOSA 2N      N/A     67  42  39 E13       30.15R
JUNCTION 1SSW    N/A     64  55  70 S3        30.13R
MERTZON 3NNE     N/A     64  46  53 N2        30.17S
SAN ANGELO 7NW   N/A     65  46  48 NE1       30.15R
STRLNG CT 4WSW   N/A     61  37  41 NE1       30.18R
ST LAWRNCE 5SW   N/A     60  37  41 E9        30.18R
SWEETWATR 11SW   N/A     61  42  49 NE16      30.16S
WALL 1E          N/A     63  47  55 NE2       30.15R
$$

TXZ055-058-074-075-080-082-300600-
TEXAS TECH WEST TEXAS MESONET/FAR WEST/SOUTHWEST MOUNTAINS/TRANS PECOS

CITY           SKY/WX    TMP DP  RH WIND       PRES   REMARKS
PRSMN GAP BBNP   N/A     73  49  43 N13       30.08S
$$



USA.gov is the U.S. government's official web portal to all federal, state and local government web resources and services.